Вернуться в каталог

CSO-1

АктивенВоенныеSSO
NORAD 43866·PAYLOAD·🇫🇷 France

Запущен Dec 19, 2018 с Guiana Space Centre

Loading…

Ближайшие Пролёты (ближайшие 24 часа)

TLE

УстаревшееSource: Mike McCants

Эпоха: Aug 26, 2026, 02:13 UTC

1 43866U 18106A   26238.09305404 0.00000000  00000-0  00000-0 0    02
2 43866  98.5979 176.9049 0006239  40.9466 318.9479 14.26736493    07

Отслеживайте CSO-1 в реальном времени с AllMySat

Download on the App Store